[[[{"header":{"parameterUnit":"kt","parameterCategory":2,"dx":1,"dy":1,"la1":30.253999710083008,"la2":30.299108505249023,"lo1":-89.0895004272461,"lo2":-89.04439544677734,"nx":28,"ny":28,"refTime":"2022-09-25T21:00:00:Z","depth":0,"parameterNumber":1,"parameterNumberName":"U-component_of_WINDS"},"data":[-5.8732,-5.8864,-5.8855,-5.9001,-5.9017,-5.9116,-5.9148,-5.9188,-5.9218,-5.9334,-5.9398,-5.9402,-5.9428,-5.9503,-5.9573,-5.9573,-5.9604,-5.9657,-5.9649,-5.942,-5.9387,-5.9357,-5.9326,-5.9663,-5.9663,-5.9889,-5.9891,-5.9893,-5.8565,-5.8583,-5.8657,-5.8723,-5.8787,-5.873,-5.8778,-5.8835,-5.8924,-5.8961,-5.9024,-5.9125,-5.9203,-5.9212,-5.9285,-5.9346,-5.9325,-5.9367,-5.9365,-5.937,-5.9124,-5.9092,-5.9384,-5.9384,-5.9384,-5.9383,-5.9383,-5.9383,-5.8258,-5.8337,-5.8372,-5.8452,-5.8483,-5.8527,-5.8601,-5.8604,-5.8676,-5.8752,-5.8726,-5.8827,-5.8862,-5.8947,-5.8972,-5.905,-5.9002,-5.9046,-5.9058,-5.9071,-5.9087,-5.8767,-5.9062,-5.9061,-5.906,-5.9059,-5.9059,0,-5.8032,-5.8019,-5.809,-5.8158,-5.8216,-5.8267,-5.8313,-5.8358,-5.8327,-5.8389,-5.8476,-5.8525,-5.8621,-5.8703,-5.8769,-5.8787,-5.8737,-5.8729,-5.876,-5.8777,-5.8783,-5.8785,-5.8387,-5.8722,-5.8719,-5.8717,-5.8715,-5.8714,-5.7725,-5.7817,-5.7849,-5.79,-5.7922,-5.8004,-5.8051,-5.8017,-5.8069,-5.812,-5.8191,-5.8271,-5.8335,-5.8476,-5.8479,-5.8551,-5.8528,-5.8657,-5.8539,-5.855,-5.8534,-5.8531,-5.8541,-5.8683,-5.8687,-5.869,-5.8693,0,-5.7554,-5.7538,-5.7678,-5.77,-5.7708,-5.7807,-5.7826,-5.7902,-5.7896,-5.8002,-5.8024,-5.8016,-5.8103,-5.8084,-5.8179,-5.8167,-5.8331,-5.8304,-5.8318,-5.8313,-5.843,-5.8421,-5.8805,-5.8855,-5.8501,-5.8504,-5.8507,0,-5.7288,-5.741,-5.738,-5.7462,-5.7596,-5.7559,-5.7693,-5.7702,-5.7731,-5.7814,-5.7752,-5.7831,-5.7794,-5.7871,-5.7853,-5.7983,-5.7999,-5.7999,-5.7994,-5.8008,-5.8008,-5.8038,-5.8023,-5.7974,-5.7972,-5.797,-5.7969,0,-5.7025,-5.715,-5.7283,-5.7309,-5.7345,-5.7408,-5.7426,-5.7459,-5.7506,-5.7562,-5.7592,-5.7661,-5.77,-5.7754,-5.7732,-5.7652,-5.7888,-5.7774,-5.7889,-5.789,-5.7946,-5.7943,-5.8284,-5.7966,-5.7966,-5.7965,-5.7964,0,-5.6809,-5.6867,-5.706,-5.7089,-5.7124,-5.7211,-5.7276,-5.7346,-5.7385,-5.738,-5.7424,-5.7382,-5.7491,-5.738,-5.7531,-5.7435,-5.7476,-5.7485,-5.7493,-5.7506,-5.7383,-5.7582,-5.7905,-5.7941,-5.7512,-5.7508,-5.7505,0,-5.6513,-5.6704,-5.6674,-5.6858,-5.6944,-5.687,-5.6965,-5.7001,-5.7002,-5.7075,-5.7074,-5.7158,-5.7071,-5.7095,-5.7171,-5.7176,-5.7301,-5.7158,-5.7267,-5.7271,-5.7262,-5.7558,-5.7613,-5.7836,-5.7456,-5.7461,-5.7465,0,-5.6283,-5.6325,-5.6361,-5.639,-5.6432,-5.6503,-5.6612,-5.6686,-5.6737,-5.6783,-5.6876,-5.699,-5.693,-5.697,-5.6943,-5.7024,-5.7215,-5.6949,-5.695,-5.7001,-5.7429,-5.7481,-5.7518,-5.7179,-5.7185,-5.7189,-5.7426,0,-5.5967,-5.6059,-5.6152,-5.6218,-5.6269,-5.6383,-5.6364,-5.642,-5.6389,-5.6387,-5.6521,-5.6546,-5.6622,-5.6658,-5.6629,-5.6819,-5.6785,-5.672,-5.6614,-5.6807,-5.6885,-5.6916,-5.65,-5.6496,-5.6494,-5.6491,0,0,-5.569,-5.5822,-5.5786,-5.589,-5.5932,-5.5854,-5.5978,-5.6009,-5.6075,-5.6106,-5.6045,-5.6212,-5.6236,-5.6401,-5.6459,-5.6489,-5.6522,-5.6456,-5.6714,-5.6739,-5.6763,-5.6846,-5.6879,-5.6486,-5.6485,-5.6484,-5.6484,0,-5.5571,-5.5595,-5.5717,-5.5748,-5.5792,-5.5784,-5.5813,-5.5843,-5.5848,-5.5978,-5.5913,-5.599,-5.6125,-5.616,-5.6195,-5.6434,-5.6383,-5.6458,-5.6594,-5.6687,-5.6716,-5.6741,-5.6829,-5.6861,-5.6477,-5.6477,-5.6477,0,-5.5344,-5.5366,-5.5422,-5.5511,-5.554,-5.563,-5.5512,-5.5611,-5.5678,-5.5589,-5.5719,-5.5731,-5.5775,-5.5932,-5.6001,-5.5949,-5.6257,-5.6155,-5.6172,-5.6181,-5.627,-5.6304,-5.6335,-5.5932,-5.593,-5.5928,0,0,-5.5244,-5.5329,-5.5343,-5.5485,-5.5507,-5.5497,-5.5542,-5.5516,-5.5557,-5.5574,-5.5588,-5.563,-5.5708,-5.576,-5.5832,-5.6007,-5.6014,-5.6089,-5.6114,-5.6136,-5.6156,-5.625,-5.6284,-5.5922,-5.5922,-5.5921,0,0,-5.5197,-5.5218,-5.5179,-5.5341,-5.5382,-5.5405,-5.5493,-5.5447,-5.5509,-5.5495,-5.5456,-5.5465,-5.5611,-5.5626,-5.5536,-5.5795,-5.5689,-5.571,-5.5781,-5.5813,-5.5838,-5.5833,-5.5421,0,0,0,0,0,-5.5067,-5.5215,-5.518,-5.5204,-5.5317,-5.5424,-5.5439,-5.541,-5.5336,-5.5406,-5.5411,-5.5352,-5.5569,-5.5489,-5.5514,-5.5616,-5.5833,-5.5849,-5.5864,-5.5995,-5.6029,-5.6058,0,0,0,0,0,0,-5.5076,-5.5106,-5.5176,-5.5205,-5.5231,-5.5419,-5.5287,-5.5284,-5.5328,-5.5315,-5.5353,-5.5353,-5.5331,-5.5474,-5.5497,-5.5595,-5.5413,-5.5839,-5.5853,-5.5865,-5.6007,-5.6034,-5.6058,0,0,0,0,0,-5.5083,-5.5107,-5.5297,-5.5203,-5.5225,-5.5222,-5.5282,-5.5277,-5.5311,-5.5319,-5.5317,-5.5286,-5.5334,-5.5352,-5.5488,-5.5585,-5.5397,-5.5406,-5.5848,-5.5858,-5.5868,-5.602,0,0,0,0,0,0,-5.5089,-5.5104,-5.53,-5.5306,-5.5145,-5.5211,-5.522,-5.5272,-5.5312,-5.5312,-5.5249,-5.5239,-5.5339,-5.5351,-5.5365,-5.5583,-5.5384,-5.5393,-5.5398,-5.5856,-5.5864,-5.5871,0,0,0,0,0,0,-5.5091,-5.511,-5.5303,-5.5232,-5.5229,-5.5201,-5.5209,-5.532,-5.5314,-5.524,-5.5232,-5.5244,-5.5318,-5.5352,-5.5362,-5.5537,-5.5374,-5.5382,-5.5388,-5.5392,-5.5863,-5.5869,0,0,0,0,0,0,-5.5098,-5.5114,-5.523,-5.5228,-5.5225,-5.5286,-5.5298,-5.5417,-5.5252,-5.5239,-5.5236,-5.5229,-5.532,-5.533,-5.5361,-5.5531,-5.5535,-5.5374,-5.538,-5.5384,-5.5387,0,0,0,0,0,0,0,-5.5104,-5.5005,-5.5267,-5.5225,-5.5222,-5.5358,-5.5359,-5.5361,-5.525,-5.5244,-5.5238,-5.5232,-5.5326,-5.5335,-5.5344,-5.5527,0,0,-5.5373,-5.5378,0,0,0,0,0,0,0,0,-5.4997,-5.5003,-5.5267,-5.5269,-5.527,-5.5358,-5.5359,-5.5361,-5.5249,-5.5244,-5.5239,-5.5234,-5.5328,-5.5336,-5.5343,0,0,0,0,0,0,0,0,0,0,0,0,0,0,0,-5.5268,-5.5268,0,-5.5358,-5.5359,-5.536,-5.5248,-5.5244,-5.524,-5.5236,-5.533,-5.5336,-5.5343,0,0,0,0,0,0,0,0,0,0,0,0,0,0,0,0,0,0,0,0,0,0,0,0,0,0,0,0,0,0,0,0,0,0,0,0,0,0,0,0,0,0,0,0,0,0,0,0,0,0,0,0,0,0,0,0,0,0,0,0,0,0,0,0,0,0,0,0,0]}],[{"header":{"parameterUnit":"kt","parameterCategory":2,"dx":1,"dy":1,"la1":30.253999710083008,"la2":30.299108505249023,"lo1":-89.0895004272461,"lo2":-89.04439544677734,"nx":28,"ny":28,"refTime":"2022-09-25T21:00:00:Z","depth":0,"parameterNumber":2,"parameterNumberName":"V-component_of_WINDS"},"data":[-12.9355,-12.9497,-12.9476,-12.9627,-12.9632,-12.9731,-12.9759,-12.9791,-12.9811,-12.9923,-12.9983,-12.9972,-12.998,-13.0044,-13.0105,-13.0098,-13.0126,-13.0194,-13.0174,-12.9893,-12.9853,-12.9814,-12.978,-13.0201,-13.0201,-13.0469,-13.0471,-13.0473,-12.9153,-12.9161,-12.9235,-12.9291,-12.9353,-12.9275,-12.9311,-12.9368,-12.9457,-12.9481,-12.9538,-12.9634,-12.9705,-12.9689,-12.9752,-12.9816,-12.9781,-12.9835,-12.983,-12.9832,-12.9531,-12.9495,-12.9862,-12.9862,-12.9862,-12.9862,-12.9862,-12.9862,-12.8781,-12.8867,-12.8888,-12.8967,-12.8988,-12.9025,-12.9102,-12.9087,-12.9156,-12.9222,-12.9178,-12.9277,-12.9294,-12.9357,-12.9371,-12.9445,-12.9381,-12.9431,-12.9443,-12.9457,-12.9477,-12.9097,-12.9454,-12.9453,-12.9452,-12.9451,-12.945,0,-12.8501,-12.8477,-12.8545,-12.8607,-12.8663,-12.8707,-12.8744,-12.879,-12.8725,-12.8784,-12.8868,-12.8911,-12.8995,-12.9069,-12.9122,-12.9125,-12.9046,-12.9034,-12.9069,-12.9093,-12.9109,-12.9103,-12.8615,-12.9024,-12.902,-12.9017,-12.9015,-12.9014,-12.8124,-12.8227,-12.8236,-12.8287,-12.83,-12.8383,-12.8427,-12.8361,-12.841,-12.8443,-12.852,-12.8593,-12.8648,-12.8783,-12.876,-12.8821,-12.8783,-12.8943,-12.8792,-12.8811,-12.8787,-12.8782,-12.8792,-12.8974,-12.8979,-12.8983,-12.8986,0,-12.7914,-12.7875,-12.8025,-12.8022,-12.8024,-12.8134,-12.813,-12.8211,-12.8186,-12.8294,-12.8315,-12.8274,-12.8355,-12.8306,-12.8387,-12.8358,-12.8536,-12.8497,-12.8531,-12.852,-12.8659,-12.8647,-12.9115,-12.9173,-12.8735,-12.8739,-12.8743,0,-12.7577,-12.7714,-12.7646,-12.7736,-12.7884,-12.7814,-12.7963,-12.7955,-12.7969,-12.8053,-12.7956,-12.8036,-12.7959,-12.8032,-12.799,-12.8126,-12.814,-12.8127,-12.8114,-12.8136,-12.8138,-12.816,-12.814,-12.8079,-12.8077,-12.8075,-12.8073,0,-12.7254,-12.7376,-12.7521,-12.7542,-12.755,-12.7619,-12.7625,-12.7639,-12.7681,-12.7727,-12.7754,-12.7812,-12.7844,-12.789,-12.7835,-12.7735,-12.8,-12.785,-12.7985,-12.7987,-12.8047,-12.8044,-12.847,-12.807,-12.807,-12.8069,-12.8068,0,-12.6975,-12.7026,-12.7241,-12.7246,-12.728,-12.7374,-12.7428,-12.7497,-12.7518,-12.7498,-12.7533,-12.7461,-12.7575,-12.7431,-12.7586,-12.7472,-12.7508,-12.7505,-12.7513,-12.7521,-12.7361,-12.7609,-12.802,-12.8061,-12.7528,-12.7523,-12.7519,0,-12.6616,-12.6822,-12.6763,-12.6968,-12.7056,-12.6941,-12.7044,-12.7065,-12.7047,-12.7116,-12.7094,-12.7173,-12.7055,-12.7073,-12.7156,-12.7136,-12.7285,-12.7114,-12.7214,-12.7218,-12.7214,-12.7591,-12.7665,-12.7935,-12.7461,-12.7467,-12.7471,0,-12.6332,-12.6342,-12.6383,-12.6404,-12.6422,-12.6494,-12.6612,-12.6675,-12.6726,-12.6759,-12.6855,-12.6964,-12.688,-12.691,-12.6856,-12.6946,-12.7182,-12.6842,-12.6841,-12.6906,-12.7426,-12.7497,-12.7543,-12.7126,-12.7133,-12.7139,-12.7425,0,-12.5922,-12.6019,-12.6127,-12.6175,-12.6223,-12.6347,-12.6295,-12.6351,-12.6296,-12.6273,-12.6412,-12.6414,-12.6477,-12.6514,-12.646,-12.6681,-12.6636,-12.6544,-12.6399,-12.6647,-12.674,-12.6778,-12.6266,-12.6261,-12.6257,-12.6254,0,0,-12.5589,-12.5726,-12.5657,-12.5769,-12.5805,-12.5683,-12.5821,-12.584,-12.5883,-12.591,-12.5829,-12.5984,-12.5989,-12.6163,-12.6236,-12.6261,-12.6296,-12.6211,-12.6529,-12.656,-12.6589,-12.6689,-12.673,-12.6247,-12.6245,-12.6244,-12.6243,0,-12.5428,-12.544,-12.5577,-12.5596,-12.562,-12.5588,-12.5622,-12.5623,-12.5614,-12.575,-12.5645,-12.5722,-12.5846,-12.5865,-12.5892,-12.6188,-12.6104,-12.6211,-12.639,-12.6492,-12.6528,-12.656,-12.6667,-12.6706,-12.6233,-12.6234,-12.6234,0,-12.514,-12.5143,-12.5203,-12.5279,-12.5293,-12.5385,-12.5221,-12.5325,-12.5391,-12.5249,-12.5386,-12.5379,-12.5399,-12.5571,-12.5645,-12.5573,-12.5934,-12.5809,-12.5832,-12.5839,-12.5935,-12.5979,-12.6017,-12.5507,-12.5505,-12.5503,0,0,-12.5008,-12.5097,-12.5077,-12.524,-12.5257,-12.5211,-12.5254,-12.5203,-12.5225,-12.5234,-12.5224,-12.5247,-12.5318,-12.5367,-12.5431,-12.5627,-12.5625,-12.5722,-12.5756,-12.5785,-12.5807,-12.5911,-12.5954,-12.5494,-12.5494,-12.5494,0,0,-12.4944,-12.4929,-12.4869,-12.5052,-12.5078,-12.5067,-12.5168,-12.5094,-12.5147,-12.5126,-12.5042,-12.5045,-12.5204,-12.5201,-12.5091,-12.5378,-12.5236,-12.5261,-12.5374,-12.5417,-12.545,-12.5448,-12.4922,0,0,0,0,0,-12.4753,-12.493,-12.4877,-12.49,-12.4993,-12.5098,-12.5109,-12.5045,-12.4946,-12.5028,-12.5007,-12.4913,-12.5125,-12.5026,-12.5048,-12.5171,-12.5382,-12.5402,-12.5421,-12.5613,-12.5658,-12.5696,0,0,0,0,0,0,-12.4761,-12.4789,-12.4872,-12.487,-12.489,-12.5091,-12.4909,-12.4897,-12.4936,-12.4916,-12.4921,-12.4914,-12.486,-12.501,-12.5031,-12.5149,-12.4914,-12.539,-12.5407,-12.5422,-12.5628,-12.5665,-12.5697,0,0,0,0,0,-12.4767,-12.479,-12.4957,-12.4867,-12.4885,-12.4843,-12.4902,-12.489,-12.4919,-12.4887,-12.4877,-12.4867,-12.4865,-12.4878,-12.5022,-12.5141,-12.4899,-12.4907,-12.5401,-12.5414,-12.5426,-12.5647,0,0,0,0,0,0,-12.4772,-12.4779,-12.4959,-12.4962,-12.4795,-12.483,-12.4833,-12.4885,-12.4885,-12.4878,-12.4829,-12.4813,-12.4871,-12.488,-12.4891,-12.5142,-12.4886,-12.4895,-12.49,-12.5411,-12.5422,-12.5431,0,0,0,0,0,0,-12.4766,-12.4782,-12.496,-12.4873,-12.4865,-12.4819,-12.4822,-12.4934,-12.4887,-12.4826,-12.4813,-12.4822,-12.4853,-12.4882,-12.489,-12.5067,-12.4877,-12.4885,-12.489,-12.4894,-12.542,-12.5428,0,0,0,0,0,0,-12.4772,-12.4785,-12.4872,-12.4866,-12.4859,-12.4886,-12.4916,-12.5014,-12.4815,-12.4828,-12.4795,-12.4786,-12.4858,-12.4865,-12.489,-12.5065,-12.5067,-12.4877,-12.4883,-12.4886,-12.4889,0,0,0,0,0,0,0,-12.4776,-12.47,-12.4942,-12.486,-12.4853,-12.4988,-12.4989,-12.499,-12.4813,-12.4805,-12.4797,-12.479,-12.4831,-12.484,-12.4849,-12.5063,0,0,-12.4876,-12.488,0,0,0,0,0,0,0,0,-12.4693,-12.4698,-12.4942,-12.4943,-12.4944,-12.4989,-12.4989,-12.499,-12.4812,-12.4805,-12.4799,-12.4793,-12.4834,-12.4841,-12.4848,0,0,0,0,0,0,0,0,0,0,0,0,0,0,0,-12.4942,-12.4943,0,-12.4989,-12.4989,-12.499,-12.4811,-12.4805,-12.48,-12.4795,-12.4836,-12.4841,-12.4847,0,0,0,0,0,0,0,0,0,0,0,0,0,0,0,0,0,0,0,0,0,0,0,0,0,0,0,0,0,0,0,0,0,0,0,0,0,0,0,0,0,0,0,0,0,0,0,0,0,0,0,0,0,0,0,0,0,0,0,0,0,0,0,0,0,0,0,0,0]}]]]